Weather History for Eureka, AK

Change the Weather History Date:

Thursday, May 23, 2013

  Actual Average Record
Temperature  
Mean Temperature 39 °F -  
Max Temperature 46 °F 46 °F 60 °F (2002)
Min Temperature 32 °F 31 °F 24 °F (1998)
Degree Days  
Heating Degree Days 26    
Moisture  
Dew Point 30 °F    
Average Humidity 70    
Maximum Humidity 93    
Minimum Humidity 53    
Precipitation  
Precipitation 0.00 in - - ()
Sea Level Pressure  
Sea Level Pressure 30.06 in    
Wind  
Wind Speed 6 mph (NNW)    
Max Wind Speed 12 mph    
Max Gust Speed -    
Visibility 10 miles    
Events      
Averages and records for this station are not official NWS values.
T = Trace of Precipitation, MM = Missing Value Source: NWS Daily Summary

Daily Weather History Graph

Daily Weather History Graph

Search for Another Location

Airport:

Trip Planner

Search our weather history database for the weather conditions in past years. The results will help you decide how hot, cold, wet, or windy it might be!

Date:

Astronomy

May. 23, 2013 Rise Set
Actual Time 4:34 AM AKDT 10:58 PM AKDT
Civil Twilight 3:02 AM AKDT 12:33 AM AKDT
Nautical Twilight Sun does not rise Sun does not rise
Astronomical Twilight Sun does not rise Sun does not rise
Moon 9:16 PM AKDT (5/23) 4:05 AM AKDT (5/23)
Length of Visible Light 21h 31m
Length of Day
18h 24m
Waxing Gibbous, 97% of the Moon is Illuminated
May 23
Waxing Gibbous
May 24
Full
May 31
Last Quarter
Jun 8
New
Jun 16
First Quarter

Hourly Weather History & Observations

Time (AKDT) Temp. Windchill Dew Point Humidity Pressure Visibility Wind Dir Wind Speed Gust Speed Precip Events Conditions
12:16 AM 35.6 °F 29.9 °F 28.4 °F 75% 30.04 in 10.0 mi WSW 6.9 mph - N/A   Clear
12:36 AM 35.6 °F - 28.4 °F 75% 30.04 in 10.0 mi Calm Calm - N/A   Clear
12:56 AM 35.6 °F 31.7 °F 28.4 °F 75% 30.04 in 10.0 mi WSW 4.6 mph - N/A   Partly Cloudy
1:16 AM 35.6 °F 29.9 °F 28.4 °F 75% 30.04 in 10.0 mi SW 6.9 mph - N/A   Scattered Clouds
1:36 AM 35.6 °F 32.8 °F 28.4 °F 75% 30.05 in 10.0 mi WSW 3.5 mph - N/A   Partly Cloudy
1:56 AM 33.8 °F 30.8 °F 28.4 °F 81% 30.05 in 10.0 mi WSW 3.5 mph - N/A   Clear
2:16 AM 33.8 °F 29.6 °F 28.4 °F 81% 30.05 in 10.0 mi WSW 4.6 mph - N/A   Scattered Clouds
2:36 AM 33.8 °F 30.8 °F 28.4 °F 81% 30.05 in 10.0 mi West 3.5 mph - N/A   Mostly Cloudy
2:56 AM 33.8 °F 29.6 °F 28.4 °F 81% 30.05 in 10.0 mi West 4.6 mph - N/A   Mostly Cloudy
3:16 AM 33.8 °F 27.7 °F 28.4 °F 81% 30.05 in 10.0 mi West 6.9 mph - N/A   Partly Cloudy
3:36 AM 33.8 °F 27.0 °F 28.4 °F 81% 30.05 in 10.0 mi West 8.1 mph - N/A   Mostly Cloudy
3:56 AM 32.0 °F 24.2 °F 30.2 °F 93% 30.06 in 10.0 mi West 9.2 mph - N/A   Overcast
4:16 AM 32.0 °F 24.8 °F 30.2 °F 93% 30.05 in 10.0 mi West 8.1 mph - N/A   Overcast
4:36 AM 32.0 °F 23.6 °F 30.2 °F 93% 30.05 in 10.0 mi West 10.4 mph - N/A   Overcast
4:56 AM 32.0 °F 23.6 °F 30.2 °F 93% 30.05 in 10.0 mi West 10.4 mph - N/A   Overcast
5:16 AM 32.0 °F 23.0 °F 30.2 °F 93% 30.05 in 10.0 mi West 11.5 mph - N/A   Overcast
5:36 AM 33.8 °F 25.3 °F 30.2 °F 87% 30.06 in 10.0 mi West 11.5 mph - N/A   Overcast
5:56 AM 33.8 °F 25.8 °F 30.2 °F 87% 30.06 in 10.0 mi West 10.4 mph - N/A   Overcast
6:16 AM 33.8 °F 26.4 °F 32.0 °F 93% 30.06 in 10.0 mi WSW 9.2 mph - N/A   Overcast
6:36 AM 33.8 °F 25.8 °F 32.0 °F 93% 30.06 in 10.0 mi WSW 10.4 mph - N/A   Overcast
6:56 AM 33.8 °F 25.8 °F 32.0 °F 93% 30.06 in 9.0 mi WSW 10.4 mph - N/A   Overcast
7:16 AM 33.8 °F 25.8 °F 32.0 °F 93% 30.06 in 10.0 mi WSW 10.4 mph - N/A   Overcast
7:36 AM 33.8 °F 26.4 °F 32.0 °F 93% 30.06 in 10.0 mi WSW 9.2 mph - N/A   Overcast
7:56 AM 33.8 °F 25.8 °F 32.0 °F 93% 30.05 in 10.0 mi WSW 10.4 mph - N/A   Overcast
8:16 AM 33.8 °F 25.8 °F 32.0 °F 93% 30.06 in 10.0 mi WSW 10.4 mph - N/A   Overcast
8:36 AM 35.6 °F 29.2 °F 33.8 °F 93% 30.06 in 10.0 mi SW 8.1 mph - N/A   Partly Cloudy
8:56 AM 35.6 °F 30.7 °F 33.8 °F 93% 30.05 in 10.0 mi WSW 5.8 mph - N/A   Scattered Clouds
9:16 AM 37.4 °F 33.8 °F 33.8 °F 87% 30.06 in 10.0 mi WSW 4.6 mph - N/A   Mostly Cloudy
9:36 AM 37.4 °F 34.9 °F 32.0 °F 81% 30.05 in 10.0 mi SW 3.5 mph - N/A   Partly Cloudy
9:56 AM 39.2 °F - 32.0 °F 75% 30.05 in 10.0 mi Calm Calm - N/A   Partly Cloudy
10:16 AM 42.8 °F - 32.0 °F 66% 30.06 in 10.0 mi Calm Calm - N/A   Mostly Cloudy
10:36 AM 41.0 °F - 30.2 °F 65% 30.06 in 10.0 mi Calm Calm - N/A   Mostly Cloudy
10:56 AM 44.6 °F - 30.2 °F 57% 30.06 in 10.0 mi Calm Calm - N/A   Scattered Clouds
11:16 AM 46.4 °F - 30.2 °F 53% 30.06 in - Calm Calm - N/A   Mostly Cloudy
11:36 AM 46.4 °F 45.2 °F 30.2 °F 53% 30.06 in 10.0 mi NNW 3.5 mph - N/A   Scattered Clouds
11:56 AM 44.6 °F 42.2 °F 30.2 °F 57% 30.06 in 10.0 mi North 4.6 mph - N/A   Mostly Cloudy
12:16 PM 42.8 °F 41.1 °F 30.2 °F 61% 30.06 in 10.0 mi NNE 3.5 mph - N/A   Overcast
12:36 PM 42.8 °F 40.1 °F 30.2 °F 61% 30.05 in 10.0 mi NNE 4.6 mph - N/A   Overcast
12:56 PM 42.8 °F 39.3 °F 30.2 °F 61% 30.06 in 10.0 mi North 5.8 mph - N/A   Overcast
1:16 PM 42.8 °F 40.1 °F 30.2 °F 61% 30.06 in 10.0 mi North 4.6 mph - N/A   Overcast
1:36 PM 44.6 °F - 30.2 °F 57% 30.06 in 10.0 mi Calm Calm - N/A   Overcast
1:56 PM 44.6 °F - 28.4 °F 53% 30.05 in 10.0 mi Calm Calm - N/A   Overcast
2:16 PM 44.6 °F 43.1 °F 28.4 °F 53% 30.05 in 10.0 mi North 3.5 mph - N/A   Overcast
2:36 PM 42.8 °F 40.1 °F 28.4 °F 57% 30.05 in 10.0 mi NNE 4.6 mph - N/A   Overcast
2:56 PM 42.8 °F 41.1 °F 28.4 °F 57% 30.05 in 10.0 mi NE 3.5 mph - N/A   Overcast
3:16 PM 42.8 °F 39.3 °F 28.4 °F 57% 30.06 in 10.0 mi NE 5.8 mph - N/A   Overcast
3:36 PM 42.8 °F 41.1 °F 28.4 °F 57% 30.06 in 10.0 mi NNE 3.5 mph - N/A   Overcast
3:56 PM 44.6 °F 42.2 °F 28.4 °F 53% 30.06 in 10.0 mi NNE 4.6 mph - N/A   Overcast
4:16 PM 44.6 °F 40.7 °F 28.4 °F 53% 30.06 in 10.0 mi North 6.9 mph - N/A   Overcast
4:36 PM 44.6 °F 42.2 °F 28.4 °F 53% 30.06 in 10.0 mi NNE 4.6 mph - N/A   Overcast
4:56 PM 42.8 °F 39.3 °F 28.4 °F 57% 30.06 in 10.0 mi North 5.8 mph - N/A   Overcast
5:16 PM 42.8 °F 40.1 °F 28.4 °F 57% 30.06 in 10.0 mi ENE 4.6 mph - N/A   Overcast
5:36 PM 44.6 °F 42.2 °F 28.4 °F 53% 30.06 in 10.0 mi NNE 4.6 mph - N/A   Overcast
5:56 PM 42.8 °F 40.1 °F 28.4 °F 57% 30.06 in 10.0 mi NE 4.6 mph - N/A   Overcast
6:16 PM 44.6 °F 41.4 °F 28.4 °F 53% 30.06 in 10.0 mi NNE 5.8 mph - N/A   Overcast
6:36 PM 42.8 °F 40.1 °F 28.4 °F 57% 30.06 in 10.0 mi North 4.6 mph - N/A   Overcast
6:56 PM 42.8 °F 40.1 °F 30.2 °F 61% 30.06 in 10.0 mi NNW 4.6 mph - N/A   Mostly Cloudy
7:16 PM 42.8 °F 39.3 °F 28.4 °F 57% 30.06 in 10.0 mi North 5.8 mph - N/A   Overcast
7:36 PM 42.8 °F 40.1 °F 30.2 °F 61% 30.06 in 10.0 mi NNE 4.6 mph - N/A   Mostly Cloudy
7:56 PM 42.8 °F 39.3 °F 28.4 °F 57% 30.05 in 10.0 mi NNE 5.8 mph - N/A   Overcast
8:16 PM 42.8 °F 39.3 °F 28.4 °F 57% 30.05 in 10.0 mi NE 5.8 mph - N/A   Mostly Cloudy
8:36 PM 42.8 °F 40.1 °F 28.4 °F 57% 30.06 in 10.0 mi NNE 4.6 mph - N/A   Partly Cloudy
8:56 PM 42.8 °F 39.3 °F 28.4 °F 57% 30.06 in 10.0 mi NNE 5.8 mph - N/A   Partly Cloudy
9:16 PM 41.0 °F 38.0 °F 28.4 °F 61% 30.06 in 10.0 mi NNE 4.6 mph - N/A   Mostly Cloudy
9:36 PM 39.2 °F 34.2 °F 28.4 °F 65% 30.06 in 10.0 mi North 6.9 mph - N/A   Unknown
9:56 PM 39.2 °F 33.6 °F 28.4 °F 65% 30.06 in 10.0 mi North 8.1 mph - N/A   Overcast
10:16 PM 39.2 °F 35.0 °F 28.4 °F 65% 30.06 in 10.0 mi NNE 5.8 mph - N/A   Mostly Cloudy
10:36 PM 39.2 °F 35.0 °F 28.4 °F 65% 30.06 in 10.0 mi NNE 5.8 mph - N/A   Unknown
10:56 PM 39.2 °F 35.0 °F 28.4 °F 65% 30.06 in 10.0 mi NNE 5.8 mph - N/A   Scattered Clouds
11:16 PM 37.4 °F 32.8 °F 28.4 °F 70% 30.06 in 10.0 mi North 5.8 mph - N/A   Partly Cloudy
11:36 PM 37.4 °F 32.8 °F 28.4 °F 70% 30.06 in 10.0 mi North 5.8 mph - N/A   Partly Cloudy
11:56 PM 37.4 °F 34.9 °F 28.4 °F 70% 30.06 in 10.0 mi North 3.5 mph - N/A   Mostly Cloudy